Погода в Емецке

Россия / Архангельская область     63°28′15″N   41°46′40″E
темп.,
°C
ветер,
м/с
пор.,
м/с
влажн.,
%
обл.,
%
осадки,
мм/ч
давл.,
гПа
погр.,
м
13 июня, вс
вс1300:00+15юв395657 0.0 1009175
03:00+13юв396910 0.0 1009189
06:00+17ююв395791 0.0 1008336
09:00+23ююв473935 0.0 10071231
12:00+26ююв452823 0.0 10062549
15:00+25ююз4634100 0.0 10062344
18:00+25ююв3737100 0.0 10051919
21:00+19ююв4107140 0.1 1005436
14 июня, пн
пн1400:00+16ююв310900 0.1 1005289
03:00+14ю269929 0.1 1005148
06:00+19ююз357715 0.0 1005305
09:00+24юз365154 0.0 10051260
12:00+16сз4885100 1.0 1007456
15:00+14сз2694100 2.1 1009465
18:00+15зсз248226 0.1 1010637
21:00+14ю2388100 0.1 101155
15 июня, вт
вт1500:00+11ююз2493100 0.0 101169
03:00+9ююз248310 0.0 101167
06:00+14ю3672100 0.0 1011281
09:00+20ююз4638100 0.0 10091086
12:00+22ююз5829100 0.0 10071770
15:00+23юз5828100 0.0 10052069
18:00+23юз3934100 0.0 10042482
21:00+18зюз41054100 0.0 1005887
16 июня, ср
ср1600:00+14юз2871100 0.0 1005306
03:00+11юз289282 0.0 1005189
06:00+15з356915 0.0 1005424
09:00+19зсз473852 0.0 10062099
12:00+17зсз364297 0.0 10061518
15:00+18ссз674048 0.1 10081974
18:00+16ссз574630 0.0 10101678
21:00+11с376096 0.0 1013840
17 июня, чт
чт1700:00+7ссв117746 0.0 101511
03:00+6сз248298 0.0 101790
06:00+10ссз236670 0.0 1019477
09:00+14сз354971 0.1 10201797
12:00+15сз4640100 0.1 10212210
15:00+16зсз573551 0.1 10212232
18:00+17ссз47317 0.0 10212412
21:00+12з115310 0.0 102211